• In Germany
  • List of Countries
  • For 7 days
  • Water Temperature
  • Satellite Maps
  • Weather Map
  • Weather Widgets
  • user-avatar
    Login

    Hourly Weather Malbun

    Today, 19 November, Sunday

    Time Temperature Precipitation Wind Pressure Humidity
    00:00 -8°C° 0 mm 2 mps 629 mmHg 77%
    01:00 -7°C° 0 mm 3 mps 629 mmHg 74%
    02:00 -7°C° 0.2 mm 3 mps 629 mmHg 75%
    03:00 -7°C° 0.2 mm 3 mps 628 mmHg 76%
    04:00 -7°C° 0.2 mm 3 mps 628 mmHg 77%
    05:00 -6°C° 1.1 mm 3 mps 628 mmHg 82%
    06:00 -5°C° 1.1 mm 2 mps 628 mmHg 87%
    07:00 -6°C° 0 mm 2 mps 627 mmHg 93%
    08:00 -6°C° 1 mm 3 mps 628 mmHg 93%
    09:00 -6°C° 1 mm 3 mps 628 mmHg 93%
    10:00 -5°C° 1 mm 3 mps 628 mmHg 93%
    11:00 -5°C° 0.3 mm 3 mps 628 mmHg 92%
    12:00 -4°C° 0.3 mm 3 mps 629 mmHg 91%
    13:00 -4°C° 0.3 mm 4 mps 629 mmHg 90%
    14:00 -4°C° 0.4 mm 4 mps 629 mmHg 91%
    15:00 -5°C° 0.4 mm 3 mps 629 mmHg 92%
    16:00 -5°C° 0.4 mm 3 mps 629 mmHg 93%
    17:00 -6°C° 0.3 mm 3 mps 629 mmHg 94%
    18:00 -6°C° 0.3 mm 3 mps 630 mmHg 95%
    19:00 -6°C° 0.3 mm 2 mps 630 mmHg 96%
    20:00 -6°C° 0.1 mm 2 mps 631 mmHg 96%
    21:00 -6°C° 0.1 mm 2 mps 631 mmHg 96%
    22:00 -7°C° 0.1 mm 2 mps 631 mmHg 96%
    23:00 -8°C° 0 mm 2 mps 631 mmHg 95%

    Tomorrow, 20 November, Monday

    Time Temperature Precipitation Wind Pressure Humidity
    00:00 -8°C° 0 mm 2 mps 631 mmHg 94%
    01:00 -9°C° 0 mm 2 mps 631 mmHg 94%
    02:00 -10°C° 0 mm 2 mps 631 mmHg 91%
    03:00 -10°C° 0 mm 2 mps 631 mmHg 89%
    04:00 -12°C° 0 mm 2 mps 631 mmHg 87%
    05:00 -10°C° 0 mm 2 mps 631 mmHg 83%
    06:00 -10°C° 0 mm 2 mps 631 mmHg 80%
    07:00 -10°C° 0 mm 2 mps 631 mmHg 76%
    08:00 -8°C° 0 mm 2 mps 631 mmHg 74%
    09:00 -6°C° 0 mm 2 mps 632 mmHg 72%
    10:00 -4°C° 0 mm 2 mps 633 mmHg 70%
    11:00 -1°C° 0 mm 1 mps 633 mmHg 70%
    12:00 +1°C° 0 mm 1 mps 632 mmHg 69%
    13:00 +2°C° 0 mm 1 mps 632 mmHg 69%
    14:00 +1°C° 0 mm 1 mps 632 mmHg 72%
    15:00 0°C° 0 mm 1 mps 632 mmHg 74%
    16:00 -2°C° 0 mm 2 mps 631 mmHg 77%
    17:00 -3°C° 0 mm 2 mps 631 mmHg 74%
    18:00 -4°C° 0 mm 2 mps 631 mmHg 72%
    19:00 -5°C° 0 mm 2 mps 631 mmHg 70%
    20:00 -5°C° 0 mm 2 mps 631 mmHg 71%
    21:00 -5°C° 0 mm 2 mps 631 mmHg 72%
    22:00 -5°C° 0 mm 2 mps 631 mmHg 73%
    23:00 -4°C° 0 mm 2 mps 631 mmHg 73%

    Day after tomorrow, 21 November, Tuesday

    Time Temperature Precipitation Wind Pressure Humidity
    00:00 -5°C° 0 mm 3 mps 631 mmHg 73%
    01:00 -5°C° 0 mm 3 mps 631 mmHg 74%
    02:00 -4°C° 0 mm 2 mps 630 mmHg 73%
    03:00 -4°C° 0 mm 2 mps 630 mmHg 73%
    04:00 -5°C° 0 mm 2 mps 630 mmHg 73%
    05:00 -4°C° 0 mm 2 mps 630 mmHg 74%
    06:00 -4°C° 0 mm 2 mps 630 mmHg 75%
    07:00 -3°C° 0 mm 2 mps 631 mmHg 75%
    08:00 -2°C° 0 mm 2 mps 631 mmHg 76%
    09:00 -1°C° 0 mm 2 mps 631 mmHg 78%
    10:00 +1°C° 0 mm 2 mps 632 mmHg 79%
    11:00 +2°C° 0 mm 2 mps 632 mmHg 81%
    12:00 +3°C° 0 mm 2 mps 632 mmHg 84%
    13:00 +5°C° 0 mm 1 mps 632 mmHg 87%
    14:00 +4°C° 0 mm 1 mps 631 mmHg 85%
    15:00 +3°C° 0 mm 1 mps 631 mmHg 83%
    16:00 +3°C° 0 mm 1 mps 630 mmHg 81%
    17:00 +1°C° 0 mm 2 mps 630 mmHg 79%
    18:00 -1°C° 0 mm 2 mps 630 mmHg 77%
    19:00 -2°C° 0 mm 2 mps 630 mmHg 75%
    20:00 -2°C° 0 mm 2 mps 630 mmHg 74%
    21:00 -2°C° 0 mm 2 mps 631 mmHg 73%
    22:00 -2°C° 0 mm 2 mps 631 mmHg 72%
    23:00 -2°C° 0 mm 2 mps 630 mmHg 71%

    22 November, Wednesday

    Time Temperature Precipitation Wind Pressure Humidity
    00:00 -2°C° 0 mm 2 mps 630 mmHg 70%
    01:00 -2°C° 0 mm 2 mps 630 mmHg 69%
    02:00 -2°C° 0 mm 2 mps 630 mmHg 69%
    03:00 -3°C° 0 mm 2 mps 630 mmHg 68%
    04:00 -3°C° 0 mm 2 mps 630 mmHg 68%
    05:00 -3°C° 0 mm 2 mps 630 mmHg 67%
    06:00 -3°C° 0 mm 2 mps 630 mmHg 66%
    07:00 -3°C° 0 mm 2 mps 630 mmHg 65%
    08:00 -1°C° 0 mm 2 mps 630 mmHg 67%
    09:00 +1°C° 0 mm 2 mps 631 mmHg 68%
    10:00 +3°C° 0 mm 2 mps 631 mmHg 70%
    11:00 +4°C° 0 mm 2 mps 631 mmHg 74%
    12:00 +5°C° 0 mm 2 mps 631 mmHg 78%
    13:00 +7°C° 0 mm 1 mps 631 mmHg 81%
    14:00 +5°C° 0 mm 2 mps 631 mmHg 80%
    15:00 +4°C° 0 mm 2 mps 631 mmHg 79%
    16:00 +2°C° 0 mm 2 mps 630 mmHg 78%
    17:00 +1°C° 0 mm 2 mps 630 mmHg 77%
    18:00 -1°C° 0 mm 2 mps 630 mmHg 76%
    19:00 -2°C° 0 mm 3 mps 630 mmHg 74%
    20:00 -2°C° 0 mm 3 mps 630 mmHg 73%
    21:00 -2°C° 0 mm 3 mps 630 mmHg 72%
    22:00 -2°C° 0 mm 3 mps 630 mmHg 71%
    23:00 -2°C° 0 mm 3 mps 630 mmHg 71%

    23 November, Thursday

    Time Temperature Precipitation Wind Pressure Humidity
    00:00 -2°C° 0 mm 3 mps 630 mmHg 71%
    01:00 -2°C° 0 mm 3 mps 630 mmHg 71%
    02:00 -2°C° 0 mm 3 mps 630 mmHg 72%
    03:00 -4°C° 0 mm 3 mps 630 mmHg 72%
    04:00 -4°C° 0 mm 3 mps 630 mmHg 73%
    05:00 -4°C° 0 mm 3 mps 630 mmHg 72%
    06:00 -3°C° 0 mm 2 mps 630 mmHg 72%
    07:00 -3°C° 0 mm 2 mps 631 mmHg 72%
    08:00 -2°C° 0 mm 2 mps 631 mmHg 71%
    09:00 +1°C° 0 mm 2 mps 632 mmHg 71%
    10:00 +2°C° 0 mm 2 mps 632 mmHg 71%
    11:00 +4°C° 0 mm 2 mps 633 mmHg 74%
    12:00 +5°C° 0 mm 2 mps 633 mmHg 76%
    13:00 +7°C° 0 mm 1 mps 633 mmHg 79%
    14:00 +6°C° 0 mm 1 mps 633 mmHg 79%
    15:00 +5°C° 0 mm 1 mps 632 mmHg 78%
    16:00 +2°C° 0 mm 2 mps 632 mmHg 78%
    17:00 +1°C° 0 mm 2 mps 632 mmHg 77%
    18:00 -1°C° 0 mm 2 mps 632 mmHg 76%
    19:00 -2°C° 0 mm 2 mps 632 mmHg 76%
    20:00 -2°C° 0 mm 2 mps 633 mmHg 74%
    21:00 -2°C° 0 mm 2 mps 633 mmHg 73%
    22:00 -2°C° 0 mm 2 mps 633 mmHg 71%
    23:00 -2°C° 0 mm 2 mps 633 mmHg 70%

    24 November, Friday

    Time Temperature Precipitation Wind Pressure Humidity
    00:00 -2°C° 0 mm 2 mps 633 mmHg 70%
    01:00 -2°C° 0 mm 2 mps 633 mmHg 69%
    02:00 -2°C° 0 mm 2 mps 633 mmHg 69%
    03:00 -3°C° 0 mm 2 mps 632 mmHg 69%
    04:00 -3°C° 0 mm 2 mps 632 mmHg 69%
    05:00 -3°C° 0 mm 2 mps 632 mmHg 69%
    06:00 -3°C° 0 mm 2 mps 632 mmHg 69%
    07:00 -3°C° 0 mm 2 mps 632 mmHg 69%
    08:00 -1°C° 0 mm 2 mps 633 mmHg 70%
    09:00 +1°C° 0 mm 2 mps 633 mmHg 70%
    10:00 +2°C° 0 mm 2 mps 633 mmHg 71%
    11:00 +3°C° 0 mm 2 mps 633 mmHg 72%
    12:00 +4°C° 0 mm 2 mps 633 mmHg 74%
    13:00 +5°C° 0 mm 2 mps 633 mmHg 76%
    14:00 +4°C° 0 mm 2 mps 633 mmHg 77%
    15:00 +3°C° 0 mm 2 mps 632 mmHg 79%
    16:00 +2°C° 0 mm 2 mps 632 mmHg 81%
    17:00 +1°C° 0 mm 2 mps 632 mmHg 81%
    18:00 -1°C° 0 mm 3 mps 631 mmHg 80%
    19:00 -2°C° 0 mm 3 mps 631 mmHg 80%
    20:00 -2°C° 0 mm 3 mps 631 mmHg 79%
    21:00 -2°C° 0 mm 3 mps 631 mmHg 77%
    22:00 -2°C° 0 mm 3 mps 631 mmHg 76%
    23:00 -2°C° 0 mm 3 mps 631 mmHg 76%
    Show more